Regional Weather Roundup
Issued by NWS

Home | Current Version | Previous Version | Graphics & Text | Print | Product List | Glossary On
Versions: 1 2 3 4 5 6 7 8 9 10 11 12 13 14 15 16 17 18 19 20 21 22 23 24 25 26 27 28 29 30 31 32 33 34 35 36 37 38 39 40 41 42 43 44 45 46 47 48 49 50
000
ASUS45 KPSR 210810
RWRAZ

ARIZONA REGIONAL HOURLY WEATHER ROUNDUP
NATIONAL WEATHER SERVICE PHOENIX AZ
100 AM MST THU AUG 21 2014

NOTE: FAIR INDICATES FEW OR NO CLOUDS BELOW 12,000 FEET WITH NO
SIGNIFICANT WEATHER AND/OR OBSTRUCTIONS TO VISIBILITY.

AZZ001>003-036-210900-
NORTHWEST ARIZONA

CITY           SKY/WX    TMP DP  RH WIND       PRES   REMARKS
BULLHEAD CITY  CLOUDY    90  54  29 S21       29.83S
KINGMAN        CLOUDY    74  51  44 SW8       30.03R
$$

AZZ004>008-015-016-018-210900-
NORTH CENTRAL ARIZONA

CITY           SKY/WX    TMP DP  RH WIND       PRES   REMARKS
GRAND CANYON     N/A    N/A N/A N/A MISG        N/A
WILLIAMS       MOCLDY    54  48  82 S6        30.31F
PRESCOTT       CLOUDY    67  50  54 NW5       30.15S
FLAGSTAFF      MOCLDY    50  46  86 CALM      30.27F
PAYSON         MOCLDY    63  55  77 CALM      30.16F
PAGE           PTCLDY    70  48  45 S5        30.08S
$$

AZZ009>014-017-210900-
NORTHEAST ARIZONA

CITY           SKY/WX    TMP DP  RH WIND       PRES   REMARKS
WINSLOW        PTCLDY    63  53  70 SW5       30.13F
SAINT JOHNS    CLEAR     60  48  64 S3        30.17S
SHOW LOW       PTCLDY    54  46  76 S5        30.25S
$$

AZZ023-210900-
GREATER PHOENIX AREA

CITY           SKY/WX    TMP DP  RH WIND       PRES   REMARKS
PHOENIX        CLOUDY    87  56  34 NW7       29.86F
BUCKEYE          N/A     77  64  65 W7        29.88S
LUKE AFB       NOT AVBL
DEER VALLEY    CLOUDY    82  61  48 CALM      29.89S
SCOTTSDALE     CLOUDY    83  61  47 CALM      29.90F
MESA-GATEWAY   MOCLDY    82  57  42 CALM      29.92S
$$

AZZ027-028-210900-
SOUTHWEST MARICOPA COUNTY AND PINAL COUNTY

CITY           SKY/WX    TMP DP  RH WIND       PRES   REMARKS
CASA GRANDE    CLOUDY    81  55  41 CALM      29.91S
$$

AZZ503-504-507>509-210900-
SOUTHEAST ARIZONA

CITY           SKY/WX    TMP DP  RH WIND       PRES   REMARKS
TUCSON         CLOUDY    79  62  56 SE5       30.00S
DAVIS-MONTHAN  MOCLDY    76  64  64 SE5       29.99S
NOGALES        MOCLDY    67  63  87 CALM      30.08S
SIERRA VISTA   MOCLDY    64  61  88 W3        30.13S
DOUGLAS        CLEAR     65  59  81 E3        30.08F
SAFFORD        PTCLDY    71  60  68 S5        29.99R
$$

AZZ020-021-025-026-031-210900-
SOUTHWEST ARIZONA

CITY           SKY/WX    TMP DP  RH WIND       PRES   REMARKS
YUMA           CLOUDY    86  66  51 SE8       29.81S
$$

CAZ031-033-041-043-047-048-061-210900-
SOUTHERN CALIFORNIA

CITY           SKY/WX    TMP DP  RH WIND       PRES   REMARKS
DOWNTOWN L.A.  CLEAR     67  60  78 CALM      29.92F
L.A. AIRPORT   CLEAR     67  60  78 SW6       29.93S
SAN DIEGO      CLOUDY    70  62  76 NW7       29.95R
BURBANK        CLEAR     68  59  73 SE3       29.92F
ONTARIO        PTCLDY    68  60  75 W7        29.93F
RIVERSIDE      CLEAR     67  60  78 W3        29.94S
PALM SPRINGS   CLEAR     83  55  38 NW3       29.84S
EL CENTRO NAS  CLEAR     84  52  33 W6        29.78S
IMPERIAL       PTCLDY    84  54  35 W7        29.78R
BLYTHE         CLOUDY    82  68  62 E6        29.81S
NEEDLES        MOCLDY    90  49  24 SW8       29.84S
$$

NVZ020-UTZ003-210900-
SOUTHERN NEVADA-UTAH

CITY           SKY/WX    TMP DP  RH WIND       PRES   REMARKS
LAS VEGAS      PTCLDY    80  45  28 S8        29.88S
SALT LAKE CITY CLOUDY    66  53  63 S13       30.00S
$$

NMZ009-TXZ055-210900-
NEW MEXICO-WEST TEXAS

CITY           SKY/WX    TMP DP  RH WIND       PRES   REMARKS
ALBUQUERQUE    PTCLDY    68  46  45 SE8       30.09F
EL PASO        PTCLDY    81  44  27 W15       30.00S
$$


........................KEY........................
SKY/WX - SKY CONDITION/WEATHER
TMP    - TEMPERATURE IN FAHRENHEIT
DP     - DEW POINT IN FAHRENHEIT
RH     - RELATIVE HUMIDITY IN PERCENT
WIND   - DIRECTION AND SPEED IN MILES PER HOUR (MPH)
VRB    - VARIABLE WIND DIRECTION
PRES   - MEAN SEA LEVEL PRESSURE IN INCHES OF MERCURY
         F - FALLING PRESSURE   R - RISING PRESSURE
         S - STEADY PRESSURE
VSB    - VISIBILITY IN MILES
HX     - HEAT INDEX IN FAHRENHEIT
WCI    - WIND CHILL INDEX IN FAHRENHEIT
TC     - TEMPERATURE IN CELSIUS WHICH IS ALSO KNOWN AS
         TEMPERATURE IN CENTIGRADE
AFB    - AIR FORCE BASE
         LUKE AFB IS LUKE AIR FORCE BASE
         DAVIS-MONTHAN IS DAVIS-MONTHAN AIR FORCE BASE
NAS    - NAVAL AIR STATION
         EL CENTRO NAS IS EL CENTRO NAVAL AIR STATION
N/A    - NOT AVAILABLE


USA.gov is the U.S. government's official web portal to all federal, state and local government web resources and services.